Погода в Улиастае

Монголия     47°44′24″N   96°50′46″E
темп.,
°C
ветер,
м/с
пор.,
м/с
влажн.,
%
обл.,
%
осадки,
мм/ч
давл.,
гПа
погр.,
м
2 марта, вт
вт223:00−15в236533 0.0 102121
02:00−15в226428 0.0 102020
05:00−14в226398 0.0 101920
08:00−13в126399 0.0 101821
11:00−8ююв1171100 0.0 101655
14:00−5юз126677 0.0 1013164
17:00−5юз1180100 0.0 101226
20:00−9вюв116997 0.0 101321
3 марта, ср
ср323:00−8в227799 0.2 101421
02:00−11юв117399 0.2 101421
05:00−11вюв127399 0.0 101421
08:00−10в127499 0.0 101321
11:00−7ююз2273100 0.0 1012124
14:00−4юз4106890 0.0 10111478
17:00−5з3973100 0.1 1011557
20:00−10св2261100 0.1 101421
4 марта, чт
чт423:00−10всв2261100 0.0 101621
02:00−11в1168100 0.0 101821
05:00−13вюв1173100 0.0 102021
08:00−16всв227790 0.0 102320
11:00−12в117570 0.0 102572
14:00−9зюз116685 0.0 1025372
17:00−9ююз118161 0.0 102536
20:00−15всв127833 0.0 103020
5 марта, пт
пт523:00−17всв22823 0.0 103320
02:00−19всв23811 0.0 103420
05:00−19всв23750 0.0 103420
08:00−20всв33690 0.0 103621
11:00−14в22710 0.0 103384
14:00−9вюв23650 0.0 1029363
17:00−9вюв22750 0.0 102747
20:00−15в33650 0.0 103122
6 марта, сб
сб623:00−17в33650 0.0 103224
02:00−16в336423 0.0 103225
05:00−14всв2268100 0.0 103026
08:00−11св1169100 0.0 103021
11:00−9юв1185100 0.1 1030128
14:00−7з007769 0.1 1027257
17:00−6з11871 0.0 102534
20:00−13всв22841 0.0 102721